Location: Kitchener-Waterloo
(43.4500°N, 80.5000°W)
Time: 02:53:43
(UTC-04:00)

Daily predictions for brighter satellites

Satellite Brightness Start Highest point End
(mag) Time Altitude Azimuth Time Altitude Azimuth Time Altitude Azimuth
BREEZE-M DEB (TANK) 3.8 00:00:09 10° NW 00:02:29 33° NNE 00:07:41 10° E
ALOS 2 3.7 00:07:31 31° ENE 00:07:38 31° ENE 00:11:31 10° N
H-2A R/B 4.2 00:07:00 10° NE 00:09:52 24° ENE 00:09:52 24° ENE
ASTEX 1 3.6 00:06:32 10° N 00:11:26 64° W 00:12:26 51° SW
Timation 1 Rocket 4.2 00:15:58 58° S 00:17:11 77° ESE 00:23:12 10° NNE
Okean 1-7 Rocket 3.5 00:13:17 10° N 00:17:45 84° WNW 00:17:45 84° WNW
Terra 3.4 00:16:52 23° WSW 00:17:56 25° W 00:21:52 10° NW
Meteor 1-13 Rocket 4.2 00:16:08 10° N 00:22:07 88° E 00:23:12 62° SSE
NOSS 3-1 (C) 4.4 00:15:55 10° NNW 00:23:15 57° NE 00:27:26 29° ESE
CZ-4C R/B 4.2 00:24:56 40° NE 00:24:56 40° NE 00:27:47 10° N
Lacrosse 5 3.9 00:27:11 15° E 00:27:11 15° E 00:28:24 10° ENE
Meteor 2-21 4.4 00:23:24 59° SSE 00:24:32 74° E 00:30:44 10° NNE
Okean 1 Rocket 3.2 00:24:32 71° W 00:24:32 71° W 00:29:01 10° N
CZ-2C R/B 4.3 00:22:06 10° NE 00:25:21 19° E 00:25:21 19° E
Cosmos 1809 Rocket 4.4 00:24:57 59° SSE 00:26:07 77° E 00:32:19 10° NNE
Cosmos 1300 Rocket 4.0 00:29:22 53° W 00:29:31 53° W 00:33:54 10° N
Cosmos 1302 Rocket 4.1 00:31:59 60° E 00:31:59 60° E 00:37:02 10° NNE
USA 234 4.0 00:25:40 10° NE 00:31:58 52° NNW 00:38:15 10° WSW
Cosmos 1025 Rocket 3.3 00:28:07 10° N 00:32:03 63° NE 00:32:03 63° NE
Cosmos 2278 Rocket 4.3 00:28:42 10° WSW 00:33:12 24° NW 00:37:44 10° N
Meteor 1-11 Rocket 3.7 00:33:07 66° S 00:33:58 83° E 00:39:49 10° NNE
Cosmos 1833 Rocket 3.2 00:33:14 10° NW 00:38:33 44° WSW 00:39:00 43° WSW
Gbstr 26 Del rocket 3.5 00:35:33 10° NW 00:40:06 52° NNE 00:40:15 51° NNE
Meteor 2-4 Rocket 3.6 00:36:58 10° N 00:42:22 70° ENE 00:42:48 67° ESE
Cosmos 1536 3.6 00:51:04 51° N 00:51:04 51° N 00:54:07 10° N
Cosmos 2082 Rocket 3.4 00:46:15 10° NW 00:51:01 28° WSW 00:51:28 28° WSW
Cosmos 1943 Rocket 4.0 00:52:36 17° E 00:52:36 17° E 00:55:22 10° ENE
Cosmos 1544 Rocket 4.2 00:52:45 49° NE 00:52:45 49° NE 00:56:10 10° NNE
Cosmos 1400 Rocket 3.5 00:56:13 53° NNW 00:56:13 53° NNW 00:59:33 10° N
Cosmos 1689 Rocket 4.5 01:00:47 26° N 01:00:47 26° N 01:02:21 10° N
Cosmos 1633 4.0 01:03:42 38° NNW 01:03:42 38° NNW 01:06:11 10° N
Cosmos 1503 Rocket 3.9 00:57:16 10° NNW 01:02:31 79° ENE 01:02:38 78° E
MOS 1-B Rocket 3.9 01:08:11 65° SE 01:09:08 82° ENE 01:15:44 10° NNW
Meteor 2-15 Rocket 4.3 01:03:00 10° N 01:09:09 80° W 01:09:55 69° SSW
CZ-4B R/B 3.7 01:12:27 22° NNW 01:12:27 22° NNW 01:13:45 10° NNW
Cosmos 2285 Rocket 3.8 01:13:36 68° S 01:14:28 84° ESE 01:20:53 10° NNE
Meteor 1-23 Rocket 4.2 01:11:07 10° NNW 01:16:38 64° W 01:16:53 63° WSW
Cosmos 1605 Rocket 4.0 01:16:56 63° SSW 01:18:00 80° W 01:24:27 10° N
Cosmos 1459 Rocket 4.5 01:20:30 43° ESE 01:21:15 45° E 01:27:00 10° NNE
Cosmos 1153 Rocket 4.4 01:29:04 67° S 01:30:01 89° E 01:36:24 10° N
Okean 2 4.5 01:27:19 10° NNW 01:30:20 40° NW 01:30:20 40° NW
Cosmos 2123 Rocket 4.4 01:25:44 10° NNW 01:31:45 49° W 01:32:36 46° WSW
Cosmos 1354 Rocket 4.3 01:27:52 10° NNW 01:32:38 53° W 01:32:38 53° W
SeaSat 1 3.5 01:33:33 33° E 01:34:52 39° NE 01:39:27 10° NNW
Cosmos 2173 Rocket 4.2 01:36:12 54° SE 01:37:06 59° E 01:43:19 10° NNE
Gblst 52 Del rocket 4.5 01:37:53 65° S 01:38:31 69° SE 01:44:45 10° ENE
NOSS 3-1 (A) 4.0 01:34:20 10° NW 01:41:55 74° WSW 01:44:02 53° S
Cosmos 968 Rocket 4.5 01:37:42 10° N 01:42:38 40° ENE 01:43:52 34° E
Cosmos 2369 Rocket 2.1 01:43:16 68° WSW 01:43:49 74° WNW 01:49:28 10° NNE
ALOS 2 4.3 01:44:55 23° WNW 01:44:55 23° WNW 01:47:37 10° NW
Helios 1A Rocket 3.6 01:40:09 10° N 01:43:33 51° NNW 01:43:33 51° NNW
H-2A R/B 3.9 01:42:18 10° N 01:46:23 33° WNW 01:46:31 33° WNW
Meteor 1-12 Rocket 4.0 01:48:04 79° S 01:48:26 88° E 01:54:07 10° N
ISS -0.8 01:48:32 22° N 01:48:32 22° N 01:51:06 10° NE
Cosmos 1066 Rocket 4.4 01:44:02 10° N 01:49:18 55° ENE 01:49:55 52° ESE
Cosmos 1602 Rocket 4.0 01:46:15 10° NNW 01:49:56 58° NW 01:49:56 58° NW
Cosmos 1626 Rocket 4.1 01:52:50 10° NNW 01:56:30 53° NW 01:56:30 53° NW
Cosmos 1455 Rocket 4.3 02:01:01 32° WNW 02:01:01 32° WNW 02:04:35 10° N
Lacrosse 5 rocket 2.5 02:02:21 37° N 02:02:21 37° N 02:04:59 10° NE
ATLAS 2AS CENTAUR R/B 3.2 01:55:26 10° NNW 02:03:36 70° NE 02:08:36 24° SE
CZ-2C R/B 2.8 02:01:20 10° N 02:06:26 56° WNW 02:06:52 54° W
Lacrosse 5 2.1 02:06:21 59° WNW 02:06:55 64° NW 02:12:00 10° NE
Cosmos 1992 Rocket 4.2 02:10:48 57° W 02:11:10 58° WNW 02:16:20 10° NNE
PSLV R/B 4.4 02:12:42 10° NNE 02:16:42 42° E 02:16:42 42° E
CZ-2C R/B 3.4 02:19:48 50° W 02:19:48 50° W 02:24:21 10° NNW
Cosmos 1666 4.5 02:20:16 25° ENE 02:20:16 25° ENE 02:23:00 10° NNE
Cosmos 1500 4.2 02:27:54 43° NNW 02:27:54 43° NNW 02:30:45 10° N
GP-B 4.4 02:23:44 10° NNW 02:27:14 30° WNW 02:27:14 30° WNW
SL-08 R/B 4.5 02:26:46 58° S 02:28:11 88° E 02:34:38 10° N
Cosmos 1656 Rocket 3.8 02:33:31 54° SE 02:34:16 59° ESE 02:39:49 10° NNE
Cosmos 1943 Rocket 2.2 02:34:07 59° WSW 02:34:58 69° WNW 02:40:34 10° NNE
Cosmos 1606 Rocket 3.6 02:36:15 76° NE 02:36:15 76° NE 02:40:19 10° N
Cosmos 2228 4.1 02:36:03 34° E 02:36:19 34° E 02:40:14 10° NNE
Cosmos 44 Rocket 3.3 02:41:18 10° NNW 02:46:28 85° NE 02:47:24 60° SE
Cosmos 2058 Rocket 3.1 02:47:43 69° ESE 02:47:48 70° E 02:52:13 10° NNE
Meteor 1-21 4.1 02:44:10 10° NNW 02:49:47 79° W 02:50:50 60° SSW
SL-8 R/B 3.7 02:45:22 10° WNW 02:50:11 81° NNE 02:54:59 10° ESE
Resurs 1-4 Rocket 4.5 02:49:57 10° ENE 02:52:40 14° E 02:55:23 10° ESE
Cosmos 1953 Rocket 3.9 02:56:24 10° NNW 03:00:15 51° WNW 03:00:15 51° WNW
Cosmos 2233 Rocket 3.9 02:59:20 46° S 03:01:18 80° E 03:07:27 10° N
Cosmos 1570 Rocket 4.1 03:00:19 52° SSE 03:01:26 67° ESE 03:06:45 10° NNE
Meteor 1-15 Rocket 4.4 03:00:27 45° SSE 03:02:14 69° E 03:08:04 10° NNE
Cosmos 2098 Rocket 4.3 03:05:21 44° SW 03:07:24 64° WNW 03:14:46 10° N
ERS-2 3.4 03:04:53 10° NNE 03:08:17 32° E 03:08:37 31° ESE
Abrixas 4.1 03:09:22 34° N 03:09:22 34° N 03:12:04 10° ENE
ADEOS 4.5 03:04:38 10° NNE 03:09:35 41° E 03:11:35 29° SE
SeaSat 1 3.6 03:13:21 28° W 03:13:21 28° W 03:16:46 10° NW
SL-08 R/B 3.2 03:12:33 52° SSE 03:13:43 87° ENE 03:18:25 10° NNW
Cosmos 1726 Rocket 4.0 03:13:41 45° W 03:13:46 45° WNW 03:17:56 10° N
Cosmos 1743 4.3 03:18:58 24° WNW 03:18:58 24° WNW 03:21:51 10° NNW
BREEZE-M DEB (TANK) 3.1 03:07:56 10° WNW 03:19:23 80° SW 03:22:11 16° SE
Cosmos 972 Rocket 4.1 03:17:44 10° NNW 03:22:39 68° ENE 03:25:39 25° SSE
Cosmos 1842 3.8 03:19:21 10° NNW 03:22:49 45° WNW 03:22:49 45° WNW
Cosmos 1758 Rocket 4.4 03:20:58 10° NNW 03:24:58 35° W 03:24:58 35° W
ISS -0.6 03:23:07 10° NW 03:25:40 21° N 03:28:13 10° ENE
Cosmos 2082 4.5 03:20:48 10° NNW 03:26:19 51° ENE 03:31:45 10° SE
Geosat 3.9 03:21:41 10° NNE 03:26:45 89° WNW 03:28:15 47° SSW
Cosmos 2369 Rocket 4.5 03:25:52 10° WNW 03:28:51 14° NW 03:31:50 10° N
Meteor 2-9 Rocket 4.4 03:28:59 41° SW 03:30:58 64° WNW 03:36:46 10° N
Cosmos 2219 3.6 03:25:54 10° NW 03:31:07 40° WSW 03:31:46 39° WSW
ARIANE 5 R/B 3.5 03:27:35 10° NNE 03:32:25 41° E 03:35:16 22° SSE
NOSS 3-3 (A) 4.1 03:31:06 36° SW 03:33:50 76° NW 03:40:38 10° NE
NOSS 3-3 (C) 4.1 03:31:12 37° SW 03:33:56 77° NW 03:40:44 10° NE
Cosmos 1340 3.8 03:35:56 10° NNW 03:38:47 30° WNW 03:38:47 30° WNW
Cosmos 44 3.2 03:34:21 10° NW 03:39:34 75° WSW 03:42:36 23° SSE
CZ-2D R/B 3.3 03:34:36 10° NNE 03:39:40 37° E 03:43:29 16° SSE
Milstar 3 Cent rocket 4.1 03:39:47 15° SSE 03:39:51 15° SSE 03:43:26 10° ESE
Cosmos 2227 Rocket 2.5 03:34:16 10° NNW 03:39:57 68° ENE 03:45:35 10° SSE
OPS 8737 4.2 03:40:17 70° ESE 03:40:17 70° ESE 03:43:25 10° NE
Spot 4 Rocket 4.2 03:35:49 10° NNE 03:40:59 69° ESE 03:43:25 32° S
Lacrosse 5 rocket 3.8 03:39:25 10° NW 03:41:22 14° NNW 03:43:18 10° NNE
Cosmos 2208 Rocket 4.2 03:40:15 39° SW 03:41:58 60° WNW 03:47:10 10° NNE
IRS-1C 4.1 03:37:20 10° NNE 03:42:43 84° WNW 03:44:58 36° SSW
SL-16 R/B 3.0 03:36:49 10° SSE 03:42:52 61° ENE 03:48:57 10° N
Lacrosse 5 4.0 03:46:46 10° WNW 03:50:45 22° NNW 03:54:44 10° NNE
Cosmos 2298 Rocket 4.1 03:46:37 10° NNW 03:51:57 79° ENE 03:57:15 10° SSE
Cosmos 2034 Rocket 4.2 03:47:56 21° S 03:52:10 69° E 03:58:21 10° NNE
IRS-1D 3.9 03:47:30 10° NNE 03:52:23 56° E 03:55:21 23° S
ATLAS 2AS CENTAUR R/B 3.7 03:47:20 10° NW 03:54:01 30° WSW 03:55:56 27° SW
Cosmos 2278 3.7 03:51:23 31° SSW 03:54:11 76° ESE 03:59:52 10° NNE
Cosmos 2369 3.9 03:51:18 29° S 03:54:13 67° ESE 03:59:51 10° NNE
Cosmos 1666 4.3 03:55:17 21° WNW 03:55:29 21° WNW 03:58:26 10° NNW
CBERS-1 4.4 03:50:57 10° N 03:55:56 51° WNW 03:58:00 32° SW
Okean O Rocket 4.0 03:53:01 10° NE 03:55:59 18° E 03:58:56 10° SE
USA 161 1.3 03:57:20 78° SW 03:57:26 80° WSW 04:00:21 10° NNW
Cosmos 405 Rocket 2.7 03:56:30 10° N 04:00:37 87° W 04:02:38 29° S
Cosmos 2297 Rocket 2.4 03:56:23 10° NNW 04:02:03 73° ENE 04:07:41 10° SSE
UNK 3.9 04:01:08 14° SSE 04:05:12 78° ENE 04:09:55 10° N
Cosmos 1814 Rocket 4.4 04:02:38 22° S 04:05:59 59° ESE 04:11:16 10° NNE
UNKNOWN OBJECT B 4.0 04:02:52 10° NNE 04:06:36 38° E 04:09:18 16° SSE
ATLAS CENTAUR R/B 2.9 04:03:58 20° S 04:06:54 38° ESE 04:11:32 10° NE
Cosmos 972 4.3 04:02:54 10° NNW 04:07:49 90° ENE 04:12:48 10° SSE
Nadezhda 4 Rocket 4.2 04:03:29 10° N 04:09:39 70° E 04:15:50 10° SSE
Meteor 1-24 Rocket 4.0 04:04:37 10° N 04:10:15 71° ENE 04:16:05 10° SSE
GEOS 3 Rocket 3.6 04:10:57 10° SSE 04:16:04 56° WSW 04:21:10 10° NW
Cosmos 1076 Rocket 4.3 04:13:01 10° N 04:17:16 51° ENE 04:21:27 10° SSE
Cosmos 220 Rocket 3.9 04:14:34 10° NNW 04:18:54 66° WSW 04:22:31 14° S
Cosmos 1943 Rocket 4.4 04:17:12 10° WNW 04:19:50 13° NW 04:22:28 10° NNW
EO 1 Del DPAF 3.2 04:17:32 16° SSE 04:20:37 86° W 04:24:31 10° NNW
Cosmos 858 Rocket 4.5 04:24:14 10° NNW 04:29:24 62° WSW 04:34:34 10° S
Cosmos 1766 Rocket 4.0 04:26:23 10° N 04:30:46 63° E 04:35:07 10° SSE
Cosmos 1408 Rocket 3.8 04:26:44 10° N 04:31:07 69° E 04:35:29 10° SSE
Cosmos 2150 Rocket 4.1 04:26:15 10° NNW 04:31:22 54° WSW 04:36:23 10° S
SL-8 R/B 4.5 04:28:20 10° W 04:32:25 28° SW 04:36:28 10° SSE
Resurs 1-4 Rocket 2.1 04:27:49 10° N 04:33:05 75° WNW 04:37:12 17° SSW
Cosmos 1378 3.2 04:30:37 10° N 04:34:25 79° E 04:38:12 10° S
Cosmos 468 Rocket 4.1 04:32:14 21° SW 04:35:45 66° WNW 04:40:55 10° NNE
CZ-4B R/B 4.4 04:31:46 10° NNE 04:37:02 41° E 04:42:09 10° SSE
Cosmos 990 Rocket 4.0 04:32:19 10° NNW 04:37:36 90° NE 04:42:52 10° SSE
Cosmos 1707 3.6 04:36:46 10° NNW 04:40:19 32° W 04:42:16 20° SW
Cosmos-2242 3.8 04:36:33 10° SSE 04:40:44 50° E 04:44:55 10° NNE
Cosmos 1441 Rocket 3.4 04:37:01 10° N 04:41:00 77° ENE 04:45:00 10° SSE
ERS-2 4.0 04:39:11 10° NNW 04:41:51 19° WNW 04:43:27 15° W
Cosmos 1634 Rocket 4.4 04:36:12 10° S 04:42:20 65° E 04:48:34 10° NNE
MOZ.5/SAFIR/RUBIN 5/SL-8 4.5 04:38:44 10° SSE 04:43:22 58° ENE 04:47:59 10° N
Abrixas 4.2 04:42:49 10° WNW 04:45:41 34° N 04:48:32 10° ENE
BREEZE-M DEB (TANK) 4.0 04:44:58 10° W 04:45:37 13° W 04:45:37 13° W
CZ-4B R/B 4.1 04:46:54 10° NNE 04:50:43 38° E 04:54:19 10° SSE
Cosmos 1898 Rocket 4.1 04:46:07 10° NW 04:50:58 36° WSW 04:55:47 10° SSW
NOSS 2-1 (D) 3.7 04:49:20 18° SW 04:52:09 58° NW 04:56:41 10° NNE
NOSS 2-1 (C) 3.7 04:50:37 17° SW 04:53:30 58° NW 04:58:01 10° NNE
Cosmos 1092 Rocket 4.0 04:49:25 10° NNW 04:55:40 72° W 05:01:56 10° S
Cosmos 1125 Rocket 4.2 04:52:05 10° NNW 04:57:15 57° ENE 05:02:21 10° SE
BREEZE-M DEB 4.4 04:56:39 10° WNW 04:58:54 36° SSW 05:01:54 10° SE
NOSS 7 (E) 4.5 04:56:36 15° SSW 04:59:24 78° SE 05:02:52 10° NE
BREEZE-M DEB (TANK) 2.6 04:56:51 10° WNW 04:59:32 58° N 05:04:11 10° E
BREEZE-M DEB (TANK) 3.1 04:56:01 10° WSW 05:00:54 49° NNW 05:03:13 10° NE
ISS -2.6 04:59:23 10° NW 05:02:36 55° NNE 05:05:49 10° ESE
GPS 2-04 Rocket1 4.1 05:01:21 14° SW 05:03:37 22° S 05:06:33 10° ESE
Cosmos 1656 3.9 05:02:20 12° SW 05:07:30 59° WNW 05:13:07 10° NNE
NOSS 2-1 (E) 4.1 05:05:12 13° WSW 05:08:37 46° NW 05:13:11 10° NNE
Cosmos 1937 Rocket 4.1 05:04:05 10° NW 05:08:43 34° WSW 05:13:22 10° SSW
Cosmos 841 Rocket 3.5 05:05:04 10° SSW 05:10:20 76° WNW 05:15:38 10° NNE
ARIANE 5 R/B 3.7 05:07:08 10° N 05:11:20 27° WNW 05:15:34 10° WSW
PSLV R/B 3.8 05:10:04 10° N 05:13:57 67° WNW 05:17:44 10° SSW
Cosmos 1697 Rocket 2.8 05:10:33 10° SW 05:16:11 67° WNW 05:21:51 10° NNE
NOSS 3-4 (A) 3.9 05:10:22 10° NW 05:17:08 53° WSW 05:24:16 10° SSE
NOSS 3-4 (C) 4.0 05:10:27 10° NW 05:17:16 54° WSW 05:24:27 10° SSE
CZ-2D R/B 3.2 05:14:50 10° N 05:19:38 32° WNW 05:24:23 10° SW
In-Cosmos 22 4.1 05:14:36 10° NNW 05:19:50 63° W 05:25:02 10° S
Cosmos 1763 Rocket 3.8 05:14:51 10° SW 05:20:00 56° WNW 05:25:08 10° NNE
UNK 3.8 05:18:50 10° WNW 05:21:28 27° N 05:23:19 10° ENE
Lacrosse 5 rocket 4.2 05:21:28 10° N 05:22:02 10° N 05:22:35 10° NNE
ARGOS Delta rocket 4.1 05:17:01 10° NNE 05:22:18 85° E 05:27:15 10° S
Thor Agena Rocket 3.5 05:17:27 10° S 05:22:29 76° WSW 05:27:34 10° NNW
Cosmos 1980 Rocket 2.3 05:17:05 10° SSW 05:22:43 87° ESE 05:28:25 10° NNE
Cosmos 2227 Rocket 3.6 05:19:41 10° WNW 05:23:23 18° W 05:27:03 10° SW
Cosmos 1470 3.5 05:22:28 10° S 05:26:19 55° E 05:30:12 10° NNE
CZ-2D R/B 4.4 05:22:41 10° N 05:26:36 36° WNW 05:30:35 10° SW
SL-16 R/B 3.7 05:22:14 10° SW 05:26:55 22° W 05:31:37 10° NW
Cosmos 2322 Rocket 3.4 05:26:44 10° S 05:31:58 41° ESE 05:37:13 10° NE
Okean O Rocket 2.1 05:28:23 10° N 05:32:35 45° WNW 05:36:46 10° SW
Cosmos 1674 2.9 05:29:06 10° N 05:32:55 77° E 05:36:40 10° SSE
CZ-3 Stage 3 4.5 05:04:29 10° W 05:35:03 41° SSW 05:41:22 10° SE
Lacrosse 5 4.4 05:31:53 10° NW 05:35:21 18° N 05:38:48 10° NE
USA 234 4.2 05:31:44 10° ESE 05:38:04 54° NNE 05:44:25 10° NW
